This is the latest recevied weather packets stored in our database for station/object N0KTA-2. If no packets are shown the sender has not sent any weather packets the latest 10 day(s).
| Time | Temp. | Humidity | Pressure | Rain* | Wind** | Luminosity | Snow |
|---|---|---|---|---|---|---|---|
| 1777527565 | 10° C | 73% | 1015.8 hPa | 0 mm | - | - | - |
| 1777526966 | 10° C | 73% | 1015.8 hPa | 0 mm | - | - | - |
| 1777526364 | 10° C | 72% | 1015.9 hPa | 0 mm | - | - | - |
| 1777525766 | 10° C | 73% | 1016.1 hPa | 0 mm | - | - | - |
| 1777525165 | 10° C | 73% | 1016.3 hPa | 0 mm | - | - | - |
| 1777524565 | 10° C | 72% | 1016.4 hPa | 0 mm | - | - | - |
| 1777523966 | 10° C | 74% | 1016.5 hPa | 0 mm | - | - | - |
| 1777523365 | 10.56° C | 73% | 1016.5 hPa | 0 mm | - | - | - |
| 1777522766 | 10.56° C | 72% | 1016.4 hPa | 0 mm | - | - | - |
| 1777522165 | 10.56° C | 69% | 1016.5 hPa | 0 mm | - | - | - |
| 1777521566 | 10.56° C | 69% | 1016.5 hPa | 0 mm | - | - | - |
| 1777520965 | 11.11° C | 69% | 1016.4 hPa | 0 mm | - | - | - |
| 1777520366 | 11.11° C | 69% | 1016.3 hPa | 0 mm | - | - | - |
| 1777519765 | 11.11° C | 67% | 1016.2 hPa | 0 mm | - | - | - |
| 1777519165 | 11.67° C | 66% | 1016.1 hPa | 0 mm | - | - | - |
| 1777518566 | 12.22° C | 68% | 1016.1 hPa | 0 mm | - | - | - |
| 1777517965 | 12.22° C | 63% | 1015.9 hPa | 0 mm | - | - | - |
| 1777517366 | 12.22° C | 62% | 1015.8 hPa | 0 mm | - | - | - |
| 1777516766 | 12.78° C | 62% | 1015.8 hPa | 0 mm | - | - | - |
| 1777516165 | 12.78° C | 61% | 1015.7 hPa | 0 mm | - | - | - |
| 1777515565 | 12.78° C | 61% | 1015.4 hPa | 0 mm | - | - | - |
| 1777514964 | 13.33° C | 59% | 1015.1 hPa | 0 mm | - | - | - |
| 1777514365 | 13.89° C | 58% | 1015.2 hPa | 0 mm | - | - | - |
| 1777513766 | 13.89° C | 57% | 1014.8 hPa | 0 mm | - | - | - |
| 1777513166 | 14.44° C | 55% | 1014.7 hPa | 0 mm | - | - | - |
* Rain latest hour (hover to see other rain measurements)
** Current wind speed in m/s (hover to see current wind gust speed)